EW4652 Weather Reports


Display with metric or nautical units.
time (UTC)temp
F
wind
direction
speed
MPH
gust
MPH
rain 1hr
in
rain 24hr
in
rain mn
in
humidity
%
barometer
mb
20260507043043 32 5 0.0 3.0 0.00 0.00 0.00 69 1017.6
20260507041542 32 5 1.0 4.0 0.00 0.00 0.00 70 1017.8
20260507040043 33 5 2.0 4.0 0.00 0.00 0.00 68 1018.1
20260507034546 33 5 1.0 3.0 0.00 0.00 0.00 68 1018.3
20260507033040 33 5 0.0 1.0 0.00 0.00 0.00 68 1018.4
20260507031542 35 5 0.0 3.0 0.00 0.00 0.00 64 1018.3
20260507030042 37 5 2.0 3.0 0.00 0.00 0.00 60 1018.4
20260507024538 38 5 1.0 3.0 0.00 0.00 0.00 58 1018.3
20260507023038 39 5 1.0 3.0 0.00 0.00 0.00 56 1018.3
20260507021539 38 5 2.0 4.0 0.00 0.00 0.00 57 1018.1
20260507020016 40 5 2.0 4.0 0.00 0.00 0.00 53 1018.0
20260507014515 42 5 2.0 4.0 0.00 0.00 0.00 50 1017.9
20260507013014 43 5 2.0 5.0 0.00 0.00 0.00 48 1017.9
20260507011514 45 360 4.0 9.0 0.00 0.00 0.00 46 1017.9
20260507010014 46 332 3.0 10.0 0.00 0.00 0.00 45 1017.9
20260507004513 47 327 4.0 9.0 0.00 0.00 0.00 43 1017.9
20260507003011 47 329 5.0 10.0 0.00 0.00 0.00 43 1017.9
20260507001514 47 304 7.0 13.0 0.00 0.00 0.00 42 1017.9
20260507000011 48 309 9.0 21.0 0.00 0.00 0.00 43 1017.9
20260506234513 47 305 11.0 20.0 0.00 0.00 0.00 43 1017.9
20260506233009 48 314 7.0 16.0 0.00 0.00 0.00 42 1018.0
20260506231511 48 324 11.0 17.0 0.00 0.00 0.00 43 1018.0
20260506230007 48 315 9.0 17.0 0.00 0.00 0.00 42 1018.0
20260506224504 48 294 10.0 18.0 0.00 0.00 0.00 42 1017.9
20260506223004 47 302 8.0 19.0 0.00 0.00 0.00 43 1018.1
20260506221606 48 294 12.0 19.0 0.00 0.00 0.00 44 1018.0
20260506220002 46 327 10.0 18.0 0.00 0.00 0.00 45 1018.2
20260506214502 47 330 9.0 17.0 0.00 0.00 0.00 44 1018.3
20260506213100 47 318 8.0 23.0 0.00 0.00 0.00 45 1018.4
20260506213000 47 309 10.0 23.0 0.00 0.00 0.00 44 1018.4
20260506211557 47 298 11.0 18.0 0.00 0.00 0.00 45 1018.4
20260506210056 46 346 10.0 20.0 0.00 0.00 0.00 46 1018.5
20260506204554 45 309 14.0 19.0 0.00 0.00 0.00 46 1018.8
20260506203054 45 308 12.0 23.0 0.00 0.00 0.00 47 1018.9
20260506201607 45 308 12.0 19.0 0.00 0.00 0.00 47 1018.9
20260506200050 45 310 14.0 22.0 0.00 0.00 0.00 47 1019.0
20260506194552 45 300 11.0 21.0 0.00 0.00 0.00 47 1019.1
20260506193052 44 311 14.0 22.0 0.00 0.00 0.00 45 1019.1
20260506191547 45 291 13.0 19.0 0.00 0.00 0.00 50 1019.1
20260506190046 44 322 9.0 21.0 0.00 0.00 0.00 48 1019.1
20260506184550 44 5 11.0 24.0 0.00 0.00 0.00 47 1019.0
20260506183044 44 292 14.0 20.0 0.00 0.00 0.00 49 1019.1
20260506181543 44 317 11.0 18.0 0.00 0.00 0.00 49 1019.2
20260506180041 43 299 10.0 21.0 0.00 0.00 0.00 49 1019.3
20260506174641 43 291 9.0 14.0 0.00 0.00 0.00 48 1019.1
20260506173051 43 311 9.0 15.0 0.00 0.00 0.00 48 1019.2
20260506171551 43 298 7.0 14.0 0.00 0.00 0.00 51 1019.4
20260506170039 42 279 9.0 17.0 0.00 0.00 0.00 49 1019.4
20260506164537 42 325 11.0 15.0 0.00 0.00 0.00 48 1019.3
20260506163051 42 322 11.0 19.0 0.00 0.00 0.00 48 1019.2
20260506161541 43 340 6.0 17.0 0.00 0.00 0.00 49 1019.1
20260506160034 43 317 11.0 17.0 0.00 0.00 0.00 49 1019.0
20260506154537 43 305 9.0 18.0 0.00 0.00 0.00 48 1018.9
20260506153030 43 318 8.0 15.0 0.00 0.00 0.00 48 1018.9
20260506151528 43 329 9.0 17.0 0.00 0.00 0.00 49 1018.6
20260506150031 43 360 8.0 15.0 0.00 0.00 0.00 49 1018.5
20260506144524 43 336 9.0 14.0 0.00 0.00 0.00 49 1018.5
20260506143022 42 319 8.0 17.0 0.00 0.00 0.00 51 1018.5
20260506141520 42 340 10.0 16.0 0.00 0.00 0.00 52 1018.8
20260506140017 41 308 5.0 15.0 0.00 0.00 0.00 54 1018.7
20260506134514 40 333 5.0 12.0 0.00 0.00 0.00 57 1018.7
20260506133011 40 5 5.0 10.0 0.00 0.00 0.00 57 1018.6
20260506131507 39 295 4.0 10.0 0.00 0.00 0.00 59 1018.4
20260506130005 38 311 4.0 9.0 0.00 0.00 0.00 60 1018.4
20260506124600 37 336 3.0 7.0 0.00 0.00 0.00 61 1018.3
20260506123054 36 327 3.0 6.0 0.00 0.00 0.00 65 1018.1
20260506121550 34 310 3.0 5.0 0.00 0.00 0.00 67 1018.0
20260506120050 33 313 2.0 5.0 0.00 0.00 0.00 69 1017.7
20260506114546 32 25 0.0 2.0 0.00 0.00 0.00 71 1017.5
20260506113036 30 25 0.0 3.0 0.00 0.00 0.00 73 1017.3
20260506111533 30 72 1.0 3.0 0.00 0.00 0.00 71 1017.0
20260506110030 31 317 2.0 4.0 0.00 0.00 0.00 72 1017.2
20260506104525 31 309 0.0 3.0 0.00 0.00 0.00 69 1017.1
20260506103024 32 309 1.0 3.0 0.00 0.00 0.00 70 1017.0
20260506101524 31 309 1.0 3.0 0.00 0.00 0.00 70 1017.1
20260506100020 32 309 2.0 3.0 0.00 0.00 0.00 67 1016.9
20260506094516 34 309 3.0 5.0 0.00 0.00 0.00 66 1016.7
20260506093018 34 316 2.0 5.0 0.00 0.00 0.00 65 1016.6
20260506091513 35 321 2.0 5.0 0.00 0.00 0.00 64 1016.5
20260506090008 35 308 3.0 6.0 0.00 0.00 0.00 63 1016.3
20260506084511 36 309 3.0 6.0 0.00 0.00 0.00 62 1016.4
20260506083003 36 298 4.0 8.0 0.00 0.00 0.00 62 1016.3
20260506081504 36 330 2.0 6.0 0.00 0.00 0.00 62 1016.2
20260506080112 36 322 4.0 8.0 0.00 0.00 0.00 61 1016.1
20260506073110 37 306 4.0 9.0 0.00 0.00 0.00 59 1016.2
20260506071552 37 319 4.0 8.0 0.00 0.00 0.00 58 1015.9
20260506061554 40 311 4.0 9.0 0.00 0.00 0.00 54 1015.5
20260506044524 40 318 3.0 6.0 0.00 0.00 0.00 52 1014.8